Home > Weather > Rio de Janeiro > Past weeks

Flag for Brazil Weather for the Past 2 Weeks in Rio de Janeiro, Rio de Janeiro, Brazil

Now
93 °F

Sunny.


Feels Like: 107 °F
Forecast: 77 / 97 °F
Wind: 5 mph from Northeast

Location: Rio De Janeiro Airport

Current Time: Feb 10, 2016 at 11:24:00 AM

Latest Report: Feb 10, 2016 at 11:00 AM


Visibility: 10 mi

Pressure: 29.89 "Hg

Humidity: 59%

Dew point: 77 °F

Location of Rio de JaneiroLocation

Historic Weather in Rio de Janeiro — Graph

°F

Rio de Janeiro Temperature Yesterday

Maximum temperature yesterday: 97 °F (at 3:00 PM)
Minimum temperature yesterday: 77 °F (at 6:00 AM)
Average temperature yesterday: 86 °F

High & Low Weather Summary for the Past Weeks

 TemperatureHumidityPressure
High99 °F (Jan 31, 2:00 PM)100% (Jan 27, 6:00 AM)30.01 "Hg (Jan 27, 6:00 AM)
Low45 °F (Jan 28, 5:00 PM)18% (Jan 28, 2:00 PM)29.71 "Hg (Jan 26, 5:00 PM)
Average84 °F78%29.92 "Hg
* Reported Jan 26 10:00 AM — Feb 10 10:00 AM, Rio de Janeiro, Weather by CustomWeather, © 2016

Note: Actual official high and low records may vary slightly from our data, if they occured in-between our weather recording intervals... More about our weather records

Advertising

Rio de Janeiro Weather History for the Previous 24 Hours

 ConditionsComfort  
Time TempWeatherWind HumidityBarometerVisibility
10:00 AM
Wed, Feb 10
88 °FSunny.6 mph66%29.89 "Hg10 mi
9:00 AM88 °FSunny.7 mph62%29.89 "Hg10 mi
8:00 AM86 °FSunny.7 mph66%29.89 "Hg10 mi
7:00 AM81 °FSunny.7 mph84%29.89 "Hg10 mi
6:00 AM79 °FClear.7 mph89%29.86 "Hg10 mi
5:00 AM79 °FClear.7 mph94%29.86 "Hg10 mi
4:00 AM81 °FClear.5 mph79%29.89 "Hg10 mi
3:00 AM81 °FClear.6 mph84%29.89 "Hg10 mi
2:00 AM82 °FClear.3 mph84%29.89 "Hg10 mi
1:00 AM82 °FClear.7 mph79%29.92 "Hg10 mi
12:00 AM82 °FClear.3 mph79%29.92 "Hg10 mi
11:00 PM
Tue, Feb 9
82 °FClear.2 mph79%29.92 "Hg10 mi
10:00 PM84 °FClear.3 mph74%29.92 "Hg10 mi
9:00 PM88 °FClear.8 mph59%29.89 "Hg10 mi
8:00 PM88 °FClear.9 mph59%29.89 "Hg10 mi
7:00 PM88 °FPassing clouds.9 mph59%29.86 "HgN/A
6:00 PM90 °FSunny.12 mph59%29.86 "Hg10 mi
5:00 PM91 °FSunny.14 mph52%29.86 "Hg10 mi
4:00 PM93 °FSunny.13 mph53%29.89 "Hg10 mi
3:00 PM97 °FSunny.6 mph50%29.89 "Hg10 mi
1:00 PM95 °FSunny.7 mph60%29.95 "Hg10 mi
12:00 PM91 °FSunny.6 mph63%29.95 "Hg10 mi
11:00 AM91 °FSunny.7 mph63%29.98 "Hg10 mi
Weather by CustomWeather, © 2016

See weather overviewHow to use our weather pages